User: anonymous   Login
Location: Kirkcaldy
(50.3333°N, 113.2333°W)
Time: 08:20:18
(UTC+00:00)
Language:

UWE-3 - Orbit

View from above orbital plane
View from above orbital plane
View from above satellite
View from above satellite

Ground track
Ground track

The orbit data is extracted from the following two-line orbital elements,

1 39446U 13066AG  23335.85486806  .00006234  00000-0  73381-3 0  9993
2 39446  97.7585 285.5328 0064141 148.8697 211.6343 14.83676212539277
Epoch (UTC): 01 December 2023 20:31:00
Eccentricity: 0.0064141
inclination: 97.7585°
perigee height: 573 km
apogee height: 662 km
right ascension of ascending node: 285.5328°
argument of perigee: 148.8697°
revolutions per day: 14.83676212
mean anomaly at epoch: 211.6343°
orbit number at epoch: 53927

The dashed part of the orbit path shows where the satellite is in the earth's shadow,  

DLR